SCP
0 0 0 0 0 0 0 0 0 0 0 0 0 0 0 0 0 0 0 0 0 0 0 0 0 0 0 0 0 0 0 0 0 0 0 0 0 0 0 0 0 0 0
0 0 0 0 0 0 0 0 0 0 0 0 0 0 0 0 0 0 0 0 0 0 0 0 0 0 0 0 0 0 0 0 0 0 0 0 0 0 0 0 0 0 0
0 0 0 0 0 0 0 0 0 0 0 0 0 0 0 0 0 0 0 0 0 0 0 0 0 0 0 0 0 0 0 0 0 0 0 0 0 0 0 0 0 0 0
0 0 0 0 0 0 0 0 0 0 0 0 0 0 0 0 0 0 0 0 0 0 0 0 0 0 0 0 0 0 0 0 0 0 0 0 0 0 0 0 0 0 0
0 0 0 0 0 0 0 0 0 0 0 0 0 0 0 0 0 0 0 0 0 0 0 0 0 0 0 0 0 0 0 0 0 0 0 0 0 0 0 0 0 0 0
0 0 0 0 0 0 0 0 0 0 0 0 0 0 0 0 0 0 0 0 0 0 0 0 0 0 0 0 0 0 0 0 0 0 0 0 0 0 0 0 0 0 0
0 0 0 0 0 0 0 0 0 0 0 0 0 0 0 0 0 0 0 0 0 0 0 0 0 0 0 0 0 0 0 0 0 0 0 0 0 0 0 0 0 0 0
0 0 0 0 0 0 0 0 0 0 0 0 0 0 0 0 0 0 0 0 0 0 0 0 0 0 0 0 0 0 0 0 0 0 0 0 0 0 0 0 0 0 0
0 0 0 0 0 0 0 0 0 0 0 0 0 0 0 0 0 0 0 0 0 0 0 0 0 0 0 0 0 0 0 0 0 0 0 0 0 0 0 0 0 0 0
0 0 0 0 0 0 0 0 0 0 0 0 0 0 0 0 0 0 0 0 0 0 0 0 0 0 0 0 0 0 0 0 0 0 0 0 0 0 0 0 0 0 0
0 0 0 0 0 0 0 0 0 0 0 0 0 0 0 0 0 0 0 0 0 0 0 0 0 -0 -0 -0 -0 0 0 0 0 0 0 0 0 0 0 0 0 0 0
0 0 0 0 0 0 0 0 0 0 0 0 0 -0 0 0 0 0 0 0 0 0 0 0 0 0 -0 -0 0 0 0 0 0 0 0 0 0 0 0 0 0 0 0
0 0 0 0 0 0 0 0 0 0 0 0 0 0 0 0 0 0 0 0 0 0 0 0 0 0 0 0 0 0 0 0 0 0 0 0 0 0 0 0 0 0 0
0 0 0 0 0 0 0 0 0 0 0 0 0 0 0 0 0 0 0 0 0 0 0 0 0 0 0 0 0 0 0 0 0 0 0 0 0 0 0 0 0 0 0
0 0 0 0 0 0 0 0 0 0 0 0 0 0 0 0 0 0 -0 -0 -0 -0 0 0 0 0 0 0 0 0 0 0 0 0 0 0 0 0 0 0 0 0 0
0 0 0 0 0 0 0 0 0 0 0 0 0 0 0 0 0 0 0 0 0 0 0 0 0 0 0 0 0 0 0 0 0 0 0 0 0 0 0 0 0 0 0
0 0 0 0 0 0 0 0 0 0 0 0 0 0 0 0 0 0 0 0 0 0 0 0 0 0 0 0 0 0 0 0 0 0 0 0 0 0 0 0 0 0 0
0 0 0 0 0 0 0 0 0 0 0 0 0 0 0 0 0 0 0 0 -0 -0 -0 0 0 0 0 0 0 0 0 0 0 0 0 0 0 0 0 0 0 0 0
0 0 0 0 0 0 0 0 0 0 0 0 0 0 0 0 0 0 0 0 0 0 0 0 0 0 0 0 0 0 0 0 0 0 0 0 0 0 0 0 0 0 0
0 0 0 0 0 0 0 0 0 0 0 0 0 0 0 0 0 0 0 0 0 0 0 0 0 0 0 0 0 0 0 0 0 0 0 0 0 0 0 0 0 0 0
0 0 0 0 0 0 0 0 0 0 0 0 0 0 0 0 0 0 0 0 0 0 0 0 0 0 0 0 0 0 0 0 0 0 0 0 0 0 0 0 0 0 0
0 0 0 0 0 0 0 0 0 0 0 0 0 0 0 0 0 0 0 0 0 0 0 0 0 0 0 0 0 0 0 0 0 0 0 0 0 0 0 0 0 0 0
0 0 0 0 0 0 0 0 0 0 0 0 0 0 0 0 0 0 0 0 0 0 0 0 0 0 0 0 0 0 0 0 0 0 0 0 0 0 0 0 0 0 0
0 0 0 0 0 0 0 0 0 0 0 0 0 0 0 0 0 0 0 0 0 0 0 0 0 0 0 0 0 0 0 -0 -0 -0 0 0 0 0 0 0 0 0 0
0 0 0 0 0 0 0 0 0 0 0 0 0 0 0 0 0 0 0 0 0 0 0 0 0 0 0 0 0 0 0 0 0 0 0 0 0 0 0 0 0 0 0
0 0 0 0 0 0 0 0 0 0 0 0 0 0 0 0 0 0 0 0 0 0 0 0 0 0 0 0 0 0 0 0 0 0 0 0 0 0 0 0 0 0 0
Wind_Speed
9 9 10 9 9 9 9 10 10 10 12 12 13 14 15 15 14 13 15 17 17 14 11 12 13 14 11 10 10 11 12 12 13 11 9 8 7 6 3 2 3 4 6
9 9 10 10 10 10 10 11 12 12 10 12 13 14 16 16 15 15 16 18 16 13 12 13 13 12 14 11 9 10 9 10 10 11 8 7 7 5 4 3 3 4 4
9 10 10 10 10 11 11 12 14 12 10 11 12 14 15 16 16 15 14 18 14 11 10 12 13 14 13 11 10 8 7 7 6 6 7 5 4 3 3 2 3 3 4
9 10 10 10 10 11 12 13 14 13 11 10 10 13 15 16 16 14 15 16 11 8 9 11 12 13 13 13 9 7 4 4 3 4 5 4 3 3 2 3 3 3 4
9 9 8 9 9 11 12 13 13 13 14 11 11 14 15 14 13 17 16 10 6 7 9 11 12 17 20 17 12 11 8 4 3 2 3 3 2 2 2 3 4 3 3
8 8 8 8 9 11 12 12 12 12 11 11 12 14 15 15 25 29 15 7 7 8 9 10 12 14 19 23 25 25 23 14 8 5 3 2 1 2 2 2 4 5 5
8 8 8 9 10 11 13 12 11 10 9 10 12 13 13 17 28 27 19 11 10 9 9 9 11 14 17 14 19 23 23 26 23 11 8 7 5 5 4 3 4 6 4
8 8 9 9 10 10 10 10 9 8 8 8 10 12 13 18 28 25 21 12 10 10 11 11 12 13 17 17 15 15 15 16 19 13 12 12 12 9 5 4 3 3 5
9 10 10 10 9 9 9 9 9 8 8 8 8 10 12 16 25 25 21 10 10 11 12 14 14 12 24 25 16 15 15 15 19 24 24 22 25 27 19 6 2 6 8
11 11 11 10 9 9 9 9 8 8 8 10 10 10 11 12 23 25 21 10 10 9 10 12 20 22 26 24 15 14 15 14 15 16 18 21 19 22 27 15 8 1 6
11 11 11 9 10 9 8 8 8 8 9 9 10 9 9 14 20 25 23 9 9 9 8 8 11 25 26 26 21 15 19 15 12 13 13 14 14 14 15 15 13 8 4
11 11 10 10 10 10 8 8 8 8 8 8 8 8 8 10 17 20 25 20 15 8 7 6 10 23 24 25 19 23 25 18 10 11 12 13 14 13 12 13 14 14 12
11 10 10 10 9 8 8 7 7 6 6 7 7 8 7 7 10 21 23 22 21 10 8 16 19 21 19 16 23 25 19 12 11 12 12 12 11 12 12 11 12 12 16
11 10 9 9 9 8 7 6 6 6 6 6 7 8 7 6 5 5 6 8 13 10 9 14 19 20 17 17 17 15 12 12 11 11 10 9 9 10 12 12 12 11 12
10 9 8 9 8 8 8 8 9 5 9 6 4 5 6 5 10 17 11 7 6 9 8 7 7 9 10 10 10 10 10 10 11 10 10 10 10 11 11 11 11 11 12
10 8 7 7 7 7 6 7 15 16 18 17 14 11 8 12 15 16 17 18 19 19 10 6 8 8 9 9 9 9 9 9 9 9 9 9 9 9 9 9 10 10 11
9 7 6 8 8 8 8 7 7 11 16 17 16 15 13 13 14 14 15 16 17 15 6 4 4 5 5 6 6 5 5 6 6 6 7 7 7 8 8 9 9 9 9
8 9 9 6 6 6 6 6 6 7 7 6 10 15 16 14 12 12 13 10 7 7 3 3 3 4 3 4 4 4 4 4 4 4 4 5 6 6 7 7 8 8 8
7 5 5 5 5 5 5 5 5 6 6 5 4 7 14 14 13 12 10 3 3 4 4 3 3 3 3 3 3 3 4 3 3 3 4 4 4 4 5 6 6 11 9
6 13 11 6 5 6 5 5 5 5 5 5 5 5 5 5 4 5 4 3 3 3 3 3 3 3 3 3 3 3 3 3 3 3 3 3 3 3 4 5 5 4 4
5 7 13 8 5 6 5 5 5 5 5 6 5 8 13 3 4 5 4 4 3 3 3 3 3 3 3 2 2 3 3 3 2 2 2 2 2 2 2 2 3 3 3
4 5 5 5 5 6 7 5 5 5 6 7 6 8 14 5 4 4 4 4 4 3 3 3 3 3 3 2 2 2 2 2 2 2 2 2 1 1 1 1 1 2 2
5 5 6 6 5 10 9 7 7 7 7 7 7 7 7 6 6 6 6 5 4 4 4 4 4 4 4 3 3 3 3 3 2 2 2 2 2 1 1 1 1 1 0
5 5 6 6 6 7 8 8 8 9 9 8 7 7 7 7 7 8 7 6 6 5 5 5 5 6 7 5 4 4 4 5 4 4 4 4 3 2 2 2 2 2 2
5 5 6 6 7 8 8 9 9 10 10 10 9 9 9 8 8 9 8 7 8 8 8 7 6 7 8 9 7 5 9 12 10 5 4 4 5 4 4 3 2 2 2
5 5 5 6 7 8 8 9 10 11 10 11 11 10 10 10 9 9 9 8 8 9 9 8 9 10 11 9 10 13 16 15 14 13 5 4 5 5 5 4 5 4 4
Wind_Direction
332 329 326 324 327 329 327 326 324 321 324 328 331 330 328 324 323 323 320 316 313 309 310 312 308 304 295 282 259 240 233 232 245 258 268 281 293 307 293 222 199 201 206
330 328 325 328 329 329 327 328 324 320 324 329 330 329 327 324 320 320 318 318 313 313 319 318 317 314 309 298 280 252 237 230 236 247 255 260 261 265 262 242 221 203 196
331 328 326 328 328 328 327 327 322 319 323 326 327 327 323 319 316 313 311 312 310 309 319 324 325 325 321 312 297 278 255 244 237 247 253 250 252 248 251 248 228 203 188
329 323 323 324 327 326 326 323 320 321 322 321 324 322 317 314 309 306 308 308 307 308 327 333 333 338 336 330 326 321 298 274 260 256 256 251 244 245 216 210 215 192 177
318 316 317 320 321 322 322 319 321 324 323 319 320 318 314 314 312 314 313 316 321 334 345 349 348 360 3 3 8 8 4 353 324 287 264 249 235 224 219 193 201 179 162
311 311 315 319 321 322 321 324 325 322 319 321 320 317 317 322 322 328 346 4 5 5 8 5 359 6 14 11 19 24 25 24 17 4 338 315 314 317 291 224 195 180 176
314 315 319 319 319 321 326 326 322 320 321 321 318 319 320 321 332 345 24 32 20 15 19 20 15 11 24 14 15 22 21 24 30 27 19 13 3 348 324 276 224 186 158
323 326 323 320 316 318 323 323 320 318 318 313 315 322 327 331 342 1 25 24 22 22 24 26 24 16 27 26 17 20 20 19 22 26 27 21 14 8 338 295 272 152 111
333 331 329 324 322 326 327 325 325 322 319 315 319 325 332 334 349 13 30 15 21 23 20 22 25 23 30 31 22 20 21 17 17 26 29 31 28 27 23 11 356 178 142
334 334 330 327 329 328 327 325 323 325 328 329 332 332 333 337 355 16 36 25 24 20 16 12 20 29 29 35 27 20 25 15 12 14 20 22 24 25 27 24 2 275 136
332 329 329 333 332 331 329 327 329 335 338 338 340 339 341 354 359 11 30 37 26 20 17 9 14 26 28 34 34 29 30 26 16 18 20 20 20 22 23 22 18 15 53
332 332 335 338 336 340 334 334 336 341 344 345 346 348 353 356 4 9 18 26 35 20 8 2 17 28 28 29 33 32 31 28 22 23 26 23 19 15 13 18 24 32 37
335 334 336 336 332 334 337 338 338 341 347 355 353 353 357 1 3 20 20 19 22 23 8 18 24 29 27 25 28 30 27 24 22 26 27 24 20 14 13 16 20 30 41
334 332 339 338 337 339 342 342 343 342 355 4 355 350 350 354 352 8 10 12 15 19 15 16 23 24 28 26 27 25 21 25 26 23 21 19 20 22 23 21 24 23 41
331 333 343 343 337 337 343 347 352 352 10 11 344 344 356 359 20 28 26 14 17 34 28 15 16 17 20 20 21 23 22 21 24 21 19 19 23 29 31 29 31 34 42
335 341 346 343 340 340 341 347 359 5 11 13 12 15 6 17 24 22 19 21 30 34 31 19 22 20 18 16 17 18 20 23 21 23 22 19 21 26 32 34 40 42 44
330 339 347 345 337 340 348 351 349 353 5 8 7 7 8 7 10 9 12 18 21 27 25 9 12 11 10 9 8 7 13 16 14 19 21 17 19 26 35 39 40 45 49
329 342 348 330 330 334 341 348 347 344 344 344 352 355 357 357 356 357 7 14 3 10 4 3 1 0 3 3 1 359 357 8 8 12 17 16 20 28 36 40 43 49 52
331 330 335 327 328 330 334 338 338 336 334 329 326 339 350 352 352 354 4 6 337 341 345 348 349 353 354 355 354 355 352 355 5 12 23 21 20 29 35 34 41 57 59
331 342 350 340 330 329 327 327 326 324 321 319 317 312 318 337 336 336 338 321 324 326 330 332 331 335 341 347 344 346 345 347 2 16 17 23 24 29 37 43 43 49 53
321 326 341 337 323 323 322 321 318 316 315 316 311 316 335 336 314 309 309 309 307 305 304 305 308 314 319 329 340 341 340 335 346 354 358 15 29 31 30 38 42 52 60
317 316 319 318 323 328 332 323 316 312 312 313 311 315 327 323 293 289 289 290 286 279 273 271 273 276 276 269 270 290 307 313 323 336 341 343 346 356 16 29 40 49 65
323 322 324 324 325 336 340 327 322 316 311 308 306 308 308 303 298 293 286 280 270 267 266 263 262 263 261 252 242 238 247 258 258 254 274 296 304 293 259 226 219 202 156
327 326 327 328 332 336 335 335 333 330 324 316 310 303 297 291 288 287 284 277 270 264 256 252 254 254 258 254 243 235 230 238 236 230 229 228 236 249 253 238 227 220 224
328 331 332 332 336 339 338 338 337 335 335 335 331 322 312 301 292 285 278 274 271 267 262 254 250 251 253 250 244 238 256 266 266 248 215 210 213 216 220 229 228 224 220
331 338 336 338 340 341 341 339 336 335 338 341 339 335 330 322 311 300 289 278 270 264 260 256 247 244 243 243 244 250 258 259 260 261 233 197 203 209 205 212 217 217 214